EW8226 Weather Reports


time (UTC)temp
C
wind
direction
speed
KPH
gust
KPH
rain 1hr
cm
rain 24hr
cm
rain mn
cm
humidity
%
barometer
mb
20260510054529 13 10 0.0 1.6 0.00 0.00 0.00 66 1010.0
20260510053047 13 94 0.0 1.6 0.00 0.00 0.00 66 1009.8
20260510051629 13 346 0.0 1.6 0.00 0.00 0.00 66 1009.8
20260510050027 13 19 0.0 0.0 0.00 0.00 0.00 66 1009.9
20260510044526 13 19 0.0 1.6 0.00 0.00 0.00 67 1010.0
20260510043038 13 355 0.0 1.6 0.00 0.00 0.00 67 1010.0
20260510041625 13 25 0.0 1.6 0.00 0.00 0.00 67 1010.1
20260510040034 13 94 0.0 0.0 0.00 0.00 0.00 66 1010.3
20260510034521 13 19 0.0 1.6 0.00 0.00 0.00 66 1010.5
20260510033019 13 355 0.0 0.0 0.00 0.00 0.00 66 1010.5
20260510031617 14 55 0.0 0.0 0.00 0.00 0.00 65 1010.6
20260510030017 14 13 0.0 0.0 0.00 0.00 0.00 64 1010.6
20260510024516 15 20 0.0 0.0 0.00 0.00 0.00 64 1010.8
20260510023014 15 36 0.0 0.0 0.00 0.00 0.00 64 1010.9
20260510021614 15 69 0.0 3.2 0.00 0.00 0.00 64 1010.7
20260510020014 15 89 0.0 1.6 0.00 0.00 0.00 64 1010.7
20260510014512 15 82 0.0 1.6 0.00 0.00 0.00 64 1010.8
20260510013021 15 44 0.0 1.6 0.00 0.00 0.00 63 1010.9
20260510011611 15 80 0.0 1.6 0.00 0.00 0.00 63 1010.9
20260510010009 15 71 0.0 1.6 0.00 0.00 0.00 62 1010.9
20260510004508 16 22 0.0 0.0 0.00 0.00 0.00 62 1011.0
20260510003006 16 52 0.0 1.6 0.00 0.00 0.00 61 1011.2
20260510001605 16 57 0.0 1.6 0.00 0.00 0.00 61 1011.4
20260510000008 16 57 0.0 1.6 0.00 0.00 0.00 61 1011.6
20260509234507 16 96 0.0 0.0 0.00 0.00 0.00 61 1011.7
20260509233005 16 90 0.0 0.0 0.00 0.00 0.00 61 1011.8
20260509231604 16 98 0.0 1.6 0.00 0.00 0.00 61 1012.0
20260509230008 17 93 0.0 1.6 0.00 0.00 0.00 61 1012.0
20260509224503 17 355 0.0 6.4 0.00 0.00 0.00 60 1011.8
20260509223103 17 48 0.0 0.0 0.00 0.00 0.00 59 1011.7
20260509221559 17 90 0.0 3.2 0.00 0.00 0.00 60 1011.7
20260509220056 17 96 0.0 0.0 0.00 0.00 0.00 60 1011.7
20260509214619 18 87 0.0 1.6 0.00 0.00 0.00 60 1011.8
20260509213052 18 79 0.0 0.0 0.00 0.00 0.00 60 1012.0
20260509211552 18 48 0.0 0.0 0.00 0.00 0.00 60 1012.0
20260509210055 18 102 0.0 1.6 0.00 0.00 0.00 60 1011.9
20260509204550 18 42 0.0 1.6 0.00 0.00 0.00 60 1011.8
20260509203059 18 41 0.0 0.0 0.00 0.00 0.00 59 1011.9
20260509201545 19 23 0.0 0.0 0.00 0.00 0.00 58 1011.8
20260509200044 19 126 0.0 1.6 0.00 0.00 0.00 57 1011.6
20260509194547 20 72 0.0 0.0 0.00 0.00 0.00 57 1011.4
20260509193041 20 47 0.0 0.0 0.00 0.00 0.00 57 1011.3
20260509191553 20 68 0.0 1.6 0.00 0.00 0.00 56 1011.1
20260509190037 20 5 0.0 0.0 0.00 0.00 0.00 56 1011.1
20260509184545 21 48 0.0 0.0 0.00 0.00 0.00 55 1011.1
20260509183046 21 26 0.0 1.6 0.00 0.00 0.00 54 1011.1
20260509181531 21 35 0.0 1.6 0.00 0.00 0.00 53 1010.9
20260509180030 21 74 0.0 1.6 0.00 0.00 0.00 53 1010.9
20260509174630 22 80 0.0 0.0 0.00 0.00 0.00 52 1010.9
20260509173027 22 59 0.0 1.6 0.00 0.00 0.00 51 1010.8
20260509171526 22 45 0.0 1.6 0.00 0.00 0.00 50 1010.8
20260509170026 22 53 0.0 0.0 0.00 0.00 0.00 49 1010.9
20260509164525 22 20 0.0 1.6 0.00 0.00 0.00 50 1010.9
20260509163033 22 96 0.0 6.4 0.00 0.00 0.00 51 1010.9
20260509161523 22 68 0.0 0.0 0.00 0.00 0.00 51 1011.0
20260509160029 22 59 0.0 0.0 0.00 0.00 0.00 50 1011.1
20260509154528 22 27 0.0 0.0 0.00 0.00 0.00 49 1011.2
20260509153039 22 104 0.0 0.0 0.00 0.00 0.00 49 1011.3
20260509151526 22 88 0.0 1.6 0.00 0.00 0.00 48 1011.3
20260509150017 23 57 0.0 0.0 0.00 0.00 0.00 47 1011.5
20260509144519 23 35 0.0 0.0 0.00 0.00 0.00 48 1011.7
20260509143013 22 28 0.0 0.0 0.00 0.00 0.00 49 1011.6
20260509141511 23 41 0.0 0.0 0.00 0.00 0.00 47 1011.6
20260509140014 23 78 0.0 0.0 0.00 0.00 0.00 46 1011.5
20260509134510 23 312 0.0 0.0 0.00 0.00 0.00 48 1011.6
20260509133010 23 172 0.0 3.2 0.00 0.00 0.00 47 1011.7
20260509131510 22 63 0.0 0.0 0.00 0.00 0.00 48 1012.0
20260509130020 23 58 0.0 0.0 0.00 0.00 0.00 47 1012.0
20260509124508 22 65 0.0 0.0 0.00 0.00 0.00 49 1012.1
20260509123004 22 81 0.0 1.6 0.00 0.00 0.00 49 1012.3
20260509121508 22 118 0.0 0.0 0.00 0.00 0.00 48 1012.4
20260509120101 22 63 0.0 0.0 0.00 0.00 0.00 49 1012.4
20260509120001 22 66 0.0 0.0 0.00 0.00 0.00 50 1012.4
20260509114603 22 92 0.0 1.6 0.00 0.00 0.00 52 1012.6
20260509113100 22 71 0.0 1.6 0.00 0.00 0.00 52 1012.7
20260509111553 21 67 0.0 1.6 0.00 0.00 0.00 53 1013.0
20260509110052 21 77 0.0 0.0 0.00 0.00 0.00 55 1013.2
20260509104551 20 90 0.0 0.0 0.00 0.00 0.00 58 1013.5
20260509103059 20 66 0.0 0.0 0.00 0.00 0.00 57 1013.7
20260509101600 20 31 0.0 1.6 0.00 0.00 0.00 57 1013.8
20260509100047 20 101 0.0 0.0 0.00 0.00 0.00 58 1013.9
20260509094556 19 63 0.0 3.2 0.00 0.00 0.00 60 1013.9
20260509093049 18 14 0.0 0.0 0.00 0.00 0.00 61 1014.0
20260509091548 18 54 0.0 0.0 0.00 0.00 0.00 62 1014.1
20260509090146 17 13 0.0 1.6 0.00 0.00 0.00 63 1014.2
20260509084548 17 360 0.0 0.0 0.00 0.00 0.00 64 1014.2
20260509083054 17 38 0.0 0.0 0.00 0.00 0.00 64 1014.2
20260509081544 16 55 0.0 0.0 0.00 0.00 0.00 65 1014.3
20260509080047 16 5 0.0 0.0 0.00 0.00 0.00 65 1014.3
20260509074550 16 77 0.0 0.0 0.00 0.00 0.00 67 1014.3
20260509073043 15 5 0.0 0.0 0.00 0.00 0.00 68 1014.3
20260509071546 14 41 0.0 0.0 0.00 0.00 0.00 72 1014.5
20260509070044 13 97 0.0 0.0 0.00 0.00 0.00 72 1014.5
20260509064543 13 100 0.0 0.0 0.00 0.00 0.00 75 1014.7
20260509063042 12 100 0.0 0.0 0.00 0.00 0.00 76 1014.7
20260509061544 11 51 0.0 0.0 0.00 0.00 0.00 79 1014.7
20260509060054 11 51 0.0 0.0 0.00 0.00 0.00 79 1014.8